Basseterre, Saint Kitts and Nevis

5:09 PM AST on September 30, 2016 (GMT -0400)
Robert L Bradshaw International

Weather History for TKPK - March, 2013

Change the Weather History Date:

Saturday, March 9, 2013

  Actual Average Record
Temperature  
Mean Temperature 76 °F -  
Max Temperature 83 °F 81 °F 85 °F (2014)
Min Temperature 69 °F 73 °F 68 °F (2005)
Cooling Degree Days 11    
Growing Degree Days 26 (Base 50)    
Moisture  
Dew Point 71 °F    
Average Humidity 79    
Maximum Humidity 94    
Minimum Humidity 62    
Precipitation  
Precipitation 0.00 in - - ()
Sea Level Pressure  
Sea Level Pressure 29.98 in    
Wind  
Wind Speed 4 mph ()    
Max Wind Speed 13 mph    
Max Gust Speed -    
Visibility 8.0 miles    
Events Rain    
Averages and records for this station are not official NWS values.
T = Trace of Precipitation, MM = Missing Value Source: Averaged Metar Reports

Daily Weather History Graph

Daily Weather History Graph

Search for Another Location

Airport or City:

Trip Planner

Search our weather history database for the weather conditions in past years. The results will help you decide how hot, cold, wet, or windy it might be!

Date:

Astronomy

Mar. 09, 2013 Rise Set
Actual Time 6:23 AM AST 6:19 PM AST
Civil Twilight 6:01 AM AST 6:41 PM AST
Nautical Twilight 5:36 AM AST 7:06 PM AST
Astronomical Twilight 5:11 AM AST 7:31 PM AST
Moon 4:28 AM AST (3/9) 4:28 PM AST (3/9)
Length of Visible Light 12h 39m
Length of Day
11h 56m
Waning Crescent, 6% of the Moon is Illuminated
Mar 9
Waning Crescent
Mar 11
New
Mar 19
First Quarter
Mar 27
Full
Apr 3
Last Quarter

Hourly Weather History & Observations

Time (AST) Temp. Heat Index Dew Point Humidity Pressure Visibility Wind Dir Wind Speed Gust Speed Precip Events Conditions
6:00 AM 73.4 °F - 69.8 °F 88% 29.95 in 6.2 mi NNW 4.6 mph - N/A   Partly Cloudy
7:00 AM 73.4 °F - 69.8 °F 88% 29.98 in 6.2 mi NNW 4.6 mph - N/A   Partly Cloudy
8:00 AM 78 °F - 71 °F 75% 30.02 in 16 mi Calm Calm - -   Partly Cloudy
8:00 AM 78.8 °F - 71.6 °F 78% 30.01 in 6.2 mi Calm Calm - N/A   Partly Cloudy
9:00 AM 82.4 °F 86.3 °F 69.8 °F 66% 30.01 in 6.2 mi Calm Calm - N/A   Scattered Clouds
10:00 AM 80.6 °F 84.6 °F 71.6 °F 74% 30.01 in 6.2 mi Calm Calm - N/A   Scattered Clouds
11:00 AM 81 °F - 70 °F 62% 30.03 in 16 mi NE 6.9 mph - -   Mostly Cloudy
11:00 AM 80.6 °F 83.9 °F 69.8 °F 70% 30.01 in 6.2 mi NE 6.9 mph - N/A   Mostly Cloudy
12:00 PM 80.6 °F 84.6 °F 71.6 °F 74% 30.01 in 6.2 mi NE 8.1 mph - N/A   Mostly Cloudy
1:00 PM 80.6 °F 84.6 °F 71.6 °F 74% 29.98 in 6.2 mi Variable 2.3 mph - N/A   Scattered Clouds
2:00 PM 82 °F - 72 °F 63% 29.97 in 16 mi NE 5.8 mph - -   Partly Cloudy
2:00 PM 82.4 °F 87.2 °F 71.6 °F 70% 29.95 in 6.2 mi NE 5.8 mph - N/A   Partly Cloudy
3:00 PM 80.6 °F 84.6 °F 71.6 °F 74% 29.95 in 6.2 mi NNE 6.9 mph - N/A   Partly Cloudy
4:00 PM 77.0 °F - 71.6 °F 83% 29.95 in 6.2 mi NNW 5.8 mph - N/A   Scattered Clouds
5:00 PM 74 °F - 72 °F 91% 29.97 in 12 mi NNE 5.8 mph - - Rain Light Rain Showers
5:00 PM 75.2 °F - 71.6 °F 89% 29.95 in 6.2 mi NNE 5.8 mph - N/A Rain Light Rain Showers
6:00 PM 73.4 °F - 71.6 °F 94% 29.98 in 6.2 mi NNE 5.8 mph - N/A   Scattered Clouds
7:00 PM 73.4 °F - 71.6 °F 94% 29.98 in 6.2 mi WSW 12.7 mph - N/A Rain Light Rain Showers
8:00 PM 71.6 °F - 69.8 °F 94% 29.98 in 6.2 mi WNW 11.5 mph - N/A   Scattered Clouds
9:00 PM 73.4 °F - 69.8 °F 88% 30.01 in 6.2 mi North 6.9 mph - N/A   Partly Cloudy